Time,TemperatureF,DewpointF,PressureIn,WindDirection,WindDirectionDegrees,WindSpeedMPH,WindSpeedGustMPH,Humidity,HourlyPrecipIn,Conditions,Clouds,dailyrainin,SoftwareType,DateUTC
2013-01-13 00:00:00,10.2,-5.1,28.97,North,6,0.0,20.8,49,0.00,,BKN027,0.00,VWS V14.01,2013-01-13 06:00:00,
2013-01-13 00:15:00,10.0,-5.3,28.97,SE,146,18.1,22.1,49,0.00,,FEW028,0.00,VWS V14.01,2013-01-13 06:15:00,
2013-01-13 00:30:00,10.0,-5.3,28.97,SSE,156,0.0,23.5,49,0.00,,FEW028,0.00,VWS V14.01,2013-01-13 06:30:00,
2013-01-13 00:45:00,9.7,-5.6,28.97,East,84,9.4,34.9,49,0.00,,FEW028,0.00,VWS V14.01,2013-01-13 06:45:00,
2013-01-13 01:00:00,9.7,-5.6,28.97,East,97,0.0,22.1,49,0.00,,FEW028,0.00,VWS V14.01,2013-01-13 07:00:00,
2013-01-13 01:15:00,9.5,-5.8,28.97,East,80,9.4,20.8,49,0.00,,OVC025,0.00,VWS V14.01,2013-01-13 07:15:00,
2013-01-13 01:30:00,9.5,-5.8,28.97,NE,38,9.4,26.2,49,0.00,,OVC025,0.00,VWS V14.01,2013-01-13 07:30:00,
2013-01-13 01:45:00,9.3,-6.0,28.94,East,95,12.1,28.2,49,0.00,,OVC025,0.00,VWS V14.01,2013-01-13 07:45:00,
2013-01-13 02:00:00,8.8,-6.5,28.94,East,81,10.7,24.8,49,0.00,,OVC025,0.00,VWS V14.01,2013-01-13 08:00:00,
2013-01-13 02:15:00,8.6,-6.6,28.97,ENE,75,18.1,26.8,49,0.00,,OVC023,0.00,VWS V14.01,2013-01-13 08:15:00,
2013-01-13 02:30:00,8.6,-6.6,28.97,ESE,111,8.1,18.1,49,0.00,,OVC023,0.00,VWS V14.01,2013-01-13 08:30:00,
2013-01-13 02:45:00,8.8,-6.5,28.97,ESE,116,0.0,26.8,49,0.00,,OVC023,0.00,VWS V14.01,2013-01-13 08:45:00,
2013-01-13 03:00:00,8.8,-6.5,28.97,East,88,16.8,18.1,49,0.00,,OVC023,0.00,VWS V14.01,2013-01-13 09:00:00,
2013-01-13 03:15:00,8.8,-6.5,28.97,East,97,8.1,23.5,49,0.00,,SCT025,0.00,VWS V14.01,2013-01-13 09:15:00,
2013-01-13 03:30:00,9.3,-6.0,28.97,SW,234,0.0,14.1,49,0.00,,SCT025,0.00,VWS V14.01,2013-01-13 09:30:00,
2013-01-13 03:45:00,9.7,-5.6,28.97,ESE,121,12.1,23.5,49,0.00,,SCT025,0.00,VWS V14.01,2013-01-13 09:45:00,
2013-01-13 04:00:00,9.7,-5.6,28.97,NNE,29,14.1,26.8,49,0.00,,SCT025,0.00,VWS V14.01,2013-01-13 10:00:00,
2013-01-13 04:15:00,9.9,-5.5,28.97,East,99,0.0,19.5,49,0.00,,OVC022,0.00,VWS V14.01,2013-01-13 10:15:00,
2013-01-13 04:30:00,9.7,-5.6,28.97,NE,49,20.8,29.5,49,0.00,,OVC022,0.00,VWS V14.01,2013-01-13 10:30:00,
2013-01-13 04:45:00,8.8,-6.5,28.97,NNE,30,8.1,28.2,49,0.00,,OVC022,0.00,VWS V14.01,2013-01-13 10:45:00,
2013-01-13 05:00:00,8.4,-6.8,29.00,NE,45,8.1,20.8,49,0.00,,OVC022,0.00,VWS V14.01,2013-01-13 11:00:00,
2013-01-13 05:15:00,8.1,-7.1,29.00,East,87,9.4,13.4,49,0.00,,,0.00,VWS V14.01,2013-01-13 11:15:00,
2013-01-13 05:30:00,7.9,-7.3,29.00,ENE,77,0.0,23.5,49,0.00,,,0.00,VWS V14.01,2013-01-13 11:30:00,
2013-01-13 05:45:00,7.7,-7.5,29.00,NE,55,0.0,18.1,49,0.00,,,0.00,VWS V14.01,2013-01-13 11:45:00,
2013-01-13 06:00:00,7.7,-7.5,29.00,ENE,69,15.4,15.4,49,0.00,,,0.00,VWS V14.01,2013-01-13 12:00:00,
2013-01-13 06:15:00,7.5,-7.6,29.00,NE,56,0.0,16.8,49,0.00,,OVC020,0.00,VWS V14.01,2013-01-13 12:15:00,
2013-01-13 06:30:00,7.2,-8.0,29.00,East,88,0.0,13.4,49,0.00,,OVC020,0.00,VWS V14.01,2013-01-13 12:30:00,
2013-01-13 06:45:00,7.0,-8.1,29.03,NNW,335,0.0,12.1,49,0.00,,OVC020,0.00,VWS V14.01,2013-01-13 12:45:00,
2013-01-13 07:00:00,7.0,-8.1,29.03,North,7,0.0,0.0,49,0.00,,OVC020,0.00,VWS V14.01,2013-01-13 13:00:00,
2013-01-13 07:15:00,7.0,-8.1,29.03,ENE,58,0.0,0.0,49,0.00,,BKN020,0.00,VWS V14.01,2013-01-13 13:15:00,
2013-01-13 07:30:00,6.6,-8.5,29.03,ENE,57,0.0,0.0,49,0.00,,BKN020,0.00,VWS V14.01,2013-01-13 13:30:00,
2013-01-13 07:45:00,6.8,-8.3,29.03,ENE,57,0.0,0.0,49,0.00,,BKN020,0.00,VWS V14.01,2013-01-13 13:45:00,
2013-01-13 08:00:00,6.8,-8.3,29.06,North,353,10.7,12.1,49,0.00,,BKN020,0.00,VWS V14.01,2013-01-13 14:00:00,
2013-01-13 08:15:00,6.8,-8.3,29.06,NW,325,0.0,10.7,49,0.00,,SCT250,0.00,VWS V14.01,2013-01-13 14:15:00,
2013-01-13 08:30:00,7.2,-8.0,29.06,NNW,340,0.0,12.1,49,0.00,,SCT250,0.00,VWS V14.01,2013-01-13 14:30:00,
2013-01-13 08:45:00,7.7,-7.5,29.06,SW,231,0.0,14.1,49,0.00,,SCT250,0.00,VWS V14.01,2013-01-13 14:45:00,
2013-01-13 09:00:00,8.1,-7.1,29.06,ESE,113,0.0,14.1,49,0.00,,SCT250,0.00,VWS V14.01,2013-01-13 15:00:00,
2013-01-13 09:15:00,8.8,-6.5,29.06,ENE,73,0.0,14.1,49,0.00,,SCT250,0.00,VWS V14.01,2013-01-13 15:15:00,
2013-01-13 09:30:00,9.3,-6.0,29.06,ESE,114,9.4,18.1,49,0.00,,SCT250,0.00,VWS V14.01,2013-01-13 15:30:00,
2013-01-13 09:45:00,10.0,-5.3,29.06,North,0,19.5,20.8,49,0.00,,SCT250,0.00,VWS V14.01,2013-01-13 15:45:00,
2013-01-13 10:00:00,10.6,-4.8,29.06,NW,322,19.5,24.8,49,0.00,,SCT250,0.00,VWS V14.01,2013-01-13 16:00:00,
2013-01-13 10:15:00,11.3,-4.1,29.06,NE,34,15.4,20.8,49,0.00,,SCT080,0.00,VWS V14.01,2013-01-13 16:15:00,
2013-01-13 10:30:00,12.0,-3.5,29.06,North,6,15.4,20.8,49,0.00,,SCT080,0.00,VWS V14.01,2013-01-13 16:30:00,
2013-01-13 10:45:00,12.7,-2.8,29.06,North,353,8.1,22.1,49,0.00,,SCT080,0.00,VWS V14.01,2013-01-13 16:45:00,
2013-01-13 11:00:00,13.5,-2.1,29.06,WNW,282,0.0,28.2,49,0.00,,SCT080,0.00,VWS V14.01,2013-01-13 17:00:00,
2013-01-13 11:15:00,14.0,-2.5,29.06,NNE,32,9.4,23.5,47,0.00,,SCT080,0.00,VWS V14.01,2013-01-13 17:15:00,
2013-01-13 11:30:00,14.5,-2.5,29.06,NNE,12,8.1,26.2,46,0.00,,SCT080,0.00,VWS V14.01,2013-01-13 17:30:00,
2013-01-13 11:45:00,14.9,-2.1,29.06,NNW,329,10.7,26.8,46,0.00,,SCT080,0.00,VWS V14.01,2013-01-13 17:45:00,
2013-01-13 12:00:00,15.8,-1.3,29.06,ESE,111,8.1,26.2,46,0.00,,SCT080,0.00,VWS V14.01,2013-01-13 18:00:00,
2013-01-13 12:15:00,16.2,-1.9,29.06,ESE,119,14.1,29.5,44,0.00,,FEW025,0.00,VWS V14.01,2013-01-13 18:15:00,
2013-01-13 12:30:00,16.9,-1.2,29.06,NNW,335,0.0,29.5,44,0.00,,FEW025,0.00,VWS V14.01,2013-01-13 18:30:00,
2013-01-13 12:45:00,17.2,-0.9,29.03,North,357,0.0,29.5,44,0.00,,FEW025,0.00,VWS V14.01,2013-01-13 18:45:00,
2013-01-13 13:00:00,17.8,-1.4,29.03,NNE,14,0.0,22.1,42,0.00,,FEW025,0.00,VWS V14.01,2013-01-13 19:00:00,
2013-01-13 13:15:00,17.8,-1.9,29.03,ESE,118,12.1,26.2,41,0.00,,FEW080,0.00,VWS V14.01,2013-01-13 19:15:00,
2013-01-13 13:30:00,18.5,-0.3,29.03,NW,307,13.4,22.1,43,0.00,,FEW080,0.00,VWS V14.01,2013-01-13 19:30:00,
2013-01-13 13:45:00,18.7,-0.6,29.03,NE,51,13.4,24.8,42,0.00,,FEW080,0.00,VWS V14.01,2013-01-13 19:45:00,
2013-01-13 14:00:00,19.0,0.2,29.03,SW,219,0.0,20.8,43,0.00,,FEW080,0.00,VWS V14.01,2013-01-13 20:00:00,
2013-01-13 14:15:00,19.2,0.4,29.03,NNW,342,18.1,22.1,43,0.00,,FEW080,0.00,VWS V14.01,2013-01-13 20:15:00,
2013-01-13 14:30:00,19.4,0.6,29.03,NNE,30,0.0,26.2,43,0.00,,FEW080,0.00,VWS V14.01,2013-01-13 20:30:00,
2013-01-13 14:45:00,19.8,0.4,29.03,North,349,10.7,20.8,42,0.00,,FEW080,0.00,VWS V14.01,2013-01-13 20:45:00,
2013-01-13 15:00:00,19.9,0.0,29.06,ENE,63,0.0,23.5,41,0.00,,FEW080,0.00,VWS V14.01,2013-01-13 21:00:00,
2013-01-13 15:15:00,20.1,0.2,29.06,NNW,345,8.1,24.8,41,0.00,,CLR,0.00,VWS V14.01,2013-01-13 21:15:00,
2013-01-13 15:30:00,20.3,0.4,29.06,NNW,337,0.0,26.2,41,0.00,,CLR,0.00,VWS V14.01,2013-01-13 21:30:00,
2013-01-13 15:45:00,20.3,0.9,29.06,North,357,0.0,19.5,42,0.00,,CLR,0.00,VWS V14.01,2013-01-13 21:45:00,
2013-01-13 16:00:00,20.5,1.0,29.06,North,357,0.0,18.1,42,0.00,,CLR,0.00,VWS V14.01,2013-01-13 22:00:00,
2013-01-13 16:15:00,20.3,0.9,29.06,WNW,282,12.1,24.8,42,0.00,,CLR,0.00,VWS V14.01,2013-01-13 22:15:00,
2013-01-13 16:30:00,19.9,0.6,29.09,WNW,300,8.1,19.5,42,0.00,,CLR,0.00,VWS V14.01,2013-01-13 22:30:00,
2013-01-13 16:45:00,19.8,0.4,29.09,NNW,344,13.4,18.1,42,0.00,,CLR,0.00,VWS V14.01,2013-01-13 22:45:00,
2013-01-13 17:00:00,19.2,0.4,29.09,North,357,0.0,16.8,43,0.00,,CLR,0.00,VWS V14.01,2013-01-13 23:00:00,
2013-01-13 17:15:00,18.5,-0.3,29.09,North,353,0.0,19.5,43,0.00,,CLR,0.00,VWS V14.01,2013-01-13 23:15:00,
2013-01-13 17:30:00,18.0,-0.3,29.09,NNW,346,0.0,8.1,44,0.00,,CLR,0.00,VWS V14.01,2013-01-13 23:30:00,
2013-01-13 17:45:00,17.2,-0.9,29.09,NW,321,0.0,0.0,44,0.00,,CLR,0.00,VWS V14.01,2013-01-13 23:45:00,
2013-01-13 18:00:00,16.7,-0.9,29.09,NW,320,0.0,0.0,45,0.00,,CLR,0.00,VWS V14.01,2013-01-14 00:00:00,
2013-01-13 18:15:00,16.3,-1.3,29.09,NNW,329,0.0,0.0,45,0.00,,CLR,0.00,VWS V14.01,2013-01-14 00:15:00,
2013-01-13 18:30:00,15.8,-1.3,29.09,NNW,341,0.0,0.0,46,0.00,,CLR,0.00,VWS V14.01,2013-01-14 00:30:00,
2013-01-13 18:45:00,15.4,-1.2,29.09,NNW,341,0.0,0.0,47,0.00,,CLR,0.00,VWS V14.01,2013-01-14 00:45:00,
2013-01-13 19:00:00,15.1,-1.5,29.09,North,349,0.0,0.0,47,0.00,,CLR,0.00,VWS V14.01,2013-01-14 01:00:00,
2013-01-13 19:15:00,14.5,-2.0,29.12,North,9,0.0,0.0,47,0.00,,CLR,0.00,VWS V14.01,2013-01-14 01:15:00,
2013-01-13 19:30:00,12.7,-3.7,29.12,North,9,0.0,0.0,47,0.00,,CLR,0.00,VWS V14.01,2013-01-14 01:30:00,
2013-01-13 19:45:00,11.3,-5.0,29.12,North,9,0.0,0.0,47,0.00,,CLR,0.00,VWS V14.01,2013-01-14 01:45:00,
2013-01-13 20:00:00,10.8,-5.5,29.12,North,9,0.0,0.0,47,0.00,,CLR,0.00,VWS V14.01,2013-01-14 02:00:00,
2013-01-13 20:15:00,10.4,-5.8,29.12,North,9,0.0,0.0,47,0.00,,CLR,0.00,VWS V14.01,2013-01-14 02:15:00,
2013-01-13 20:30:00,10.0,-6.2,29.12,North,9,0.0,0.0,47,0.00,,CLR,0.00,VWS V14.01,2013-01-14 02:30:00,
2013-01-13 20:45:00,9.7,-6.5,29.12,North,9,0.0,0.0,47,0.00,,CLR,0.00,VWS V14.01,2013-01-14 02:45:00,
2013-01-13 21:00:00,9.3,-6.8,29.12,North,9,0.0,0.0,47,0.00,,CLR,0.00,VWS V14.01,2013-01-14 03:00:00,
2013-01-13 21:15:00,9.1,-7.0,29.12,North,9,0.0,0.0,47,0.00,,CLR,0.00,VWS V14.01,2013-01-14 03:15:00,
2013-01-13 21:30:00,10.0,-6.2,29.12,North,9,0.0,0.0,47,0.00,,CLR,0.00,VWS V14.01,2013-01-14 03:30:00,
2013-01-13 21:45:00,11.1,-5.2,29.12,North,9,0.0,0.0,47,0.00,,CLR,0.00,VWS V14.01,2013-01-14 03:45:00,
2013-01-13 22:00:00,11.3,-5.0,29.12,North,10,0.0,0.0,47,0.00,,CLR,0.00,VWS V14.01,2013-01-14 04:00:00,
2013-01-13 22:15:00,10.0,-6.2,29.12,North,10,0.0,0.0,47,0.00,,CLR,0.00,VWS V14.01,2013-01-14 04:15:00,
2013-01-13 22:30:00,9.1,-7.0,29.15,North,10,0.0,0.0,47,0.00,,CLR,0.00,VWS V14.01,2013-01-14 04:30:00,
2013-01-13 22:45:00,8.4,-7.7,29.15,North,10,0.0,0.0,47,0.00,,CLR,0.00,VWS V14.01,2013-01-14 04:45:00,
2013-01-13 23:15:00,8.2,-7.8,29.15,North,10,0.0,0.0,47,0.00,,CLR,0.00,VWS V14.01,2013-01-14 05:15:00,
2013-01-13 23:30:00,7.9,-8.1,29.15,North,10,0.0,0.0,47,0.00,,CLR,0.00,VWS V14.01,2013-01-14 05:30:00,
2013-01-13 23:45:00,7.9,-8.1,29.15,North,10,0.0,0.0,47,0.00,,CLR,0.00,VWS V14.01,2013-01-14 05:45:00,